When you browse on this site, cookies collect data to enhance your experience and personalize the content and advertising you see.
Visit our Privacy Policy to learn more. By continuing to use the site, you agree to this use of cookies and data.
  • In Denmark
  • List of Countries
  • For 7 days
  • Water Temperature
  • Satellite Maps
  • Weather Map
  • Weather Widgets
  • user-avatar
    Login

    Hourly Weather Bieniowice

    Today, 24 July, Wednesday

    Time Temperature Precipitation Wind Pressure Humidity
    00:00 +21°C° 0 mm 1 mps 755 mmHg 86%
    01:00 +21°C° 0 mm 1 mps 754 mmHg 88%
    02:00 +20°C° 0 mm 1 mps 754 mmHg 89%
    03:00 +20°C° 0 mm 1 mps 754 mmHg 91%
    04:00 +20°C° 0 mm 1 mps 754 mmHg 92%
    05:00 +21°C° 0 mm 1 mps 754 mmHg 87%
    06:00 +22°C° 0 mm 1 mps 754 mmHg 82%
    07:00 +23°C° 0 mm 1 mps 754 mmHg 78%
    08:00 +25°C° 0 mm 1 mps 754 mmHg 69%
    09:00 +27°C° 0 mm 2 mps 754 mmHg 60%
    10:00 +28°C° 0 mm 2 mps 754 mmHg 51%
    11:00 +29°C° 0 mm 2 mps 754 mmHg 45%
    12:00 +30°C° 0 mm 2 mps 754 mmHg 40%
    13:00 +31°C° 0 mm 2 mps 753 mmHg 35%
    14:00 +31°C° 0 mm 2 mps 753 mmHg 34%
    15:00 +32°C° 0 mm 2 mps 753 mmHg 33%
    16:00 +32°C° 0 mm 2 mps 753 mmHg 33%
    17:00 +30°C° 0 mm 2 mps 753 mmHg 42%
    18:00 +29°C° 0 mm 2 mps 753 mmHg 51%
    19:00 +27°C° 0 mm 2 mps 753 mmHg 60%
    20:00 +25°C° 0 mm 2 mps 753 mmHg 66%
    21:00 +24°C° 0 mm 2 mps 753 mmHg 73%
    22:00 +23°C° 0 mm 1 mps 754 mmHg 80%
    23:00 +22°C° 0 mm 1 mps 754 mmHg 81%

    Tomorrow, 25 July, Thursday

    Time Temperature Precipitation Wind Pressure Humidity
    00:00 +22°C° 0 mm 1 mps 754 mmHg 83%
    01:00 +21°C° 0 mm 1 mps 754 mmHg 85%
    02:00 +21°C° 0 mm 1 mps 754 mmHg 85%
    03:00 +18°C° 0 mm 0 mps 754 mmHg 85%
    04:00 +18°C° 0 mm 0 mps 754 mmHg 85%
    05:00 +20°C° 0 mm 0 mps 754 mmHg 80%
    06:00 +21°C° 0 mm 0 mps 754 mmHg 74%
    07:00 +23°C° 0 mm 0 mps 754 mmHg 68%
    08:00 +25°C° 0 mm 0 mps 754 mmHg 61%
    09:00 +28°C° 0 mm 1 mps 754 mmHg 54%
    10:00 +30°C° 0 mm 1 mps 754 mmHg 48%
    11:00 +31°C° 0 mm 1 mps 754 mmHg 44%
    12:00 +32°C° 0 mm 1 mps 753 mmHg 39%
    13:00 +33°C° 0 mm 1 mps 753 mmHg 35%
    14:00 +34°C° 0 mm 2 mps 753 mmHg 35%
    15:00 +34°C° 0 mm 2 mps 753 mmHg 34%
    16:00 +34°C° 0 mm 3 mps 753 mmHg 34%
    17:00 +31°C° 0 mm 3 mps 752 mmHg 40%
    18:00 +30°C° 0 mm 3 mps 752 mmHg 46%
    19:00 +28°C° 0 mm 3 mps 752 mmHg 52%
    20:00 +26°C° 0 mm 3 mps 752 mmHg 59%
    21:00 +25°C° 0 mm 2 mps 753 mmHg 66%
    22:00 +23°C° 0 mm 2 mps 753 mmHg 72%
    23:00 +21°C° 0 mm 2 mps 753 mmHg 75%

    Day after tomorrow, 26 July, Friday

    Time Temperature Precipitation Wind Pressure Humidity
    00:00 +22°C° 0 mm 1 mps 753 mmHg 78%
    01:00 +21°C° 0 mm 1 mps 753 mmHg 81%
    02:00 +20°C° 0 mm 1 mps 753 mmHg 81%
    03:00 +20°C° 0 mm 1 mps 752 mmHg 82%
    04:00 +18°C° 0 mm 2 mps 752 mmHg 83%
    05:00 +19°C° 0 mm 2 mps 752 mmHg 77%
    06:00 +20°C° 0 mm 2 mps 752 mmHg 71%
    07:00 +21°C° 0 mm 2 mps 752 mmHg 65%
    08:00 +24°C° 0 mm 3 mps 752 mmHg 60%
    09:00 +25°C° 0 mm 3 mps 752 mmHg 54%
    10:00 +27°C° 0 mm 3 mps 752 mmHg 48%
    11:00 +27°C° 0 mm 3 mps 752 mmHg 45%
    12:00 +28°C° 0 mm 4 mps 751 mmHg 42%
    13:00 +29°C° 0 mm 4 mps 751 mmHg 39%
    14:00 +29°C° 0 mm 4 mps 750 mmHg 40%
    15:00 +29°C° 0 mm 5 mps 750 mmHg 42%
    16:00 +29°C° 0 mm 5 mps 750 mmHg 43%
    17:00 +27°C° 0 mm 4 mps 750 mmHg 48%
    18:00 +26°C° 0 mm 3 mps 750 mmHg 54%
    19:00 +25°C° 0 mm 3 mps 749 mmHg 60%
    20:00 +24°C° 0 mm 3 mps 750 mmHg 63%
    21:00 +21°C° 0 mm 2 mps 750 mmHg 66%
    22:00 +20°C° 0 mm 2 mps 750 mmHg 69%
    23:00 +19°C° 0 mm 2 mps 749 mmHg 72%

    27 July, Saturday

    Time Temperature Precipitation Wind Pressure Humidity
    00:00 +19°C° 0 mm 2 mps 749 mmHg 75%
    01:00 +18°C° 0 mm 2 mps 749 mmHg 78%
    02:00 +17°C° 0 mm 2 mps 749 mmHg 82%
    03:00 +17°C° 0 mm 2 mps 749 mmHg 86%
    04:00 +16°C° 0 mm 2 mps 749 mmHg 89%
    05:00 +18°C° 0 mm 2 mps 749 mmHg 84%
    06:00 +19°C° 0 mm 2 mps 749 mmHg 79%
    07:00 +21°C° 0 mm 2 mps 749 mmHg 73%
    08:00 +22°C° 0 mm 3 mps 749 mmHg 66%
    09:00 +25°C° 0 mm 4 mps 749 mmHg 60%
    10:00 +26°C° 0 mm 4 mps 748 mmHg 53%
    11:00 +27°C° 0 mm 5 mps 748 mmHg 50%
    12:00 +28°C° 0 mm 5 mps 748 mmHg 48%
    13:00 +29°C° 0 mm 5 mps 747 mmHg 46%
    14:00 +29°C° 0 mm 5 mps 747 mmHg 45%
    15:00 +29°C° 0 mm 5 mps 747 mmHg 45%
    16:00 +29°C° 0 mm 5 mps 747 mmHg 44%
    17:00 +28°C° 0 mm 5 mps 747 mmHg 48%
    18:00 +27°C° 0 mm 4 mps 747 mmHg 52%
    19:00 +26°C° 0 mm 4 mps 746 mmHg 56%
    20:00 +24°C° 0 mm 3 mps 747 mmHg 62%
    21:00 +22°C° 0 mm 3 mps 747 mmHg 67%
    22:00 +21°C° 0 mm 2 mps 747 mmHg 73%
    23:00 +20°C° 0 mm 2 mps 747 mmHg 77%

    28 July, Sunday

    Time Temperature Precipitation Wind Pressure Humidity
    00:00 +20°C° 0 mm 2 mps 747 mmHg 81%
    01:00 +19°C° 0 mm 2 mps 747 mmHg 85%
    02:00 +19°C° 0 mm 2 mps 747 mmHg 88%
    03:00 +18°C° 0 mm 2 mps 747 mmHg 91%
    04:00 +18°C° 0 mm 2 mps 747 mmHg 94%
    05:00 +19°C° 0 mm 2 mps 747 mmHg 89%
    06:00 +21°C° 0 mm 3 mps 747 mmHg 83%
    07:00 +22°C° 0 mm 3 mps 747 mmHg 78%
    08:00 +25°C° 0 mm 4 mps 747 mmHg 70%
    09:00 +26°C° 0 mm 5 mps 747 mmHg 63%
    10:00 +28°C° 0 mm 5 mps 747 mmHg 55%
    11:00 +29°C° 0 mm 6 mps 747 mmHg 52%
    12:00 +30°C° 0 mm 6 mps 747 mmHg 49%
    13:00 +32°C° 0 mm 6 mps 747 mmHg 46%
    14:00 +30°C° 0 mm 6 mps 747 mmHg 46%
    15:00 +30°C° 0 mm 6 mps 747 mmHg 46%
    16:00 +30°C° 0 mm 6 mps 747 mmHg 46%
    17:00 +29°C° 0 mm 5 mps 747 mmHg 49%
    18:00 +28°C° 0 mm 4 mps 747 mmHg 52%
    19:00 +28°C° 0 mm 4 mps 747 mmHg 55%
    20:00 +26°C° 0 mm 3 mps 747 mmHg 60%
    21:00 +25°C° 0 mm 3 mps 748 mmHg 65%
    22:00 +23°C° 0 mm 2 mps 748 mmHg 71%
    23:00 +23°C° 0 mm 2 mps 748 mmHg 74%

    29 July, Monday

    Time Temperature Precipitation Wind Pressure Humidity
    00:00 +21°C° 0 mm 2 mps 749 mmHg 76%
    01:00 +20°C° 0 mm 2 mps 749 mmHg 79%
    02:00 +21°C° 0 mm 1 mps 749 mmHg 83%
    03:00 +20°C° 0 mm 1 mps 749 mmHg 87%
    04:00 +20°C° 0 mm 1 mps 749 mmHg 90%
    05:00 +21°C° 0 mm 1 mps 749 mmHg 85%
    06:00 +23°C° 0 mm 2 mps 750 mmHg 80%
    07:00 +24°C° 0 mm 2 mps 750 mmHg 75%
    08:00 +26°C° 0 mm 3 mps 750 mmHg 67%
    09:00 +28°C° 0 mm 3 mps 750 mmHg 59%
    10:00 +30°C° 0 mm 4 mps 750 mmHg 51%
    11:00 +32°C° 0 mm 4 mps 750 mmHg 49%
    12:00 +32°C° 0 mm 4 mps 750 mmHg 46%
    13:00 +33°C° 0 mm 4 mps 750 mmHg 44%
    14:00 +32°C° 0 mm 4 mps 750 mmHg 47%
    15:00 +30°C° 0 mm 4 mps 750 mmHg 49%
    16:00 +30°C° 0 mm 4 mps 750 mmHg 52%
    17:00 +29°C° 0 mm 4 mps 750 mmHg 53%
    18:00 +28°C° 0 mm 4 mps 750 mmHg 55%
    19:00 +27°C° 0 mm 4 mps 751 mmHg 56%
    20:00 +25°C° 0 mm 3 mps 751 mmHg 56%
    21:00 +22°C° 0 mm 3 mps 751 mmHg 56%
    22:00 +20°C° 0 mm 3 mps 752 mmHg 57%
    23:00 +19°C° 0 mm 2 mps 752 mmHg 60%
    Show more